User: anonymous   Login
Location: Unspecified
(0.0000°N, 0.0000°E)
Time: 22:17:29
(UTC+02:00)
Language:

NOAA 12 - Orbit

View from above orbital plane
View from above orbital plane
View from above satellite
View from above satellite

Ground track
Ground track

The orbit data is extracted from the following two-line orbital elements,

1 21263U 91032A   15213.57598810  .00000061  00000-0  44076-4 0  9996
2 21263 098.6274 239.8278 0014796 120.4821 042.4830 14.25770571259035
Epoch (UTC): 01 August 2015 13:49:25
Eccentricity: 0.0014796
inclination: 98.6274°
perigee height: 795 km
apogee height: 816 km
right ascension of ascending node: 239.8278°
argument of perigee: 120.4821°
revolutions per day: 14.25770571
mean anomaly at epoch: 42.4830°
orbit number at epoch: 25903

The dashed part of the orbit path shows where the satellite is in the earth's shadow,  

DLR